IW7DVM-13 Weather Reports


Display with metric or nautical units.
time (UTC)temp
F
wind
direction
speed
MPH
gust
MPH
rain 1hr
in
rain 24hr
in
rain mn
in
humidity
%
barometer
mb
20260508213003 60 37 0.0 1.0 0.00 0.10 0.10 72 1010.3
20260508212503 60 0 0.0 0.0 0.00 0.10 0.10 72 1010.3
20260508212003 60 0 0.0 0.0 0.00 0.10 0.10 72 1010.3
20260508211503 60 22 0.0 2.0 0.00 0.10 0.10 72 1010.2
20260508211003 61 0 0.0 0.0 0.00 0.10 0.10 72 1010.1
20260508210503 61 0 0.0 0.0 0.00 0.10 0.10 72 1010.2
20260508210003 61 346 0.0 3.0 0.00 0.10 0.10 72 1010.2
20260508205503 61 347 1.0 4.0 0.00 0.10 0.10 72 1010.0
20260508205003 61 353 1.0 4.0 0.00 0.10 0.10 72 1009.9
20260508204503 61 339 1.0 5.0 0.00 0.10 0.10 72 1009.9
20260508204003 61 337 1.0 4.0 0.00 0.10 0.10 72 1009.9
20260508203503 61 350 1.0 4.0 0.00 0.10 0.10 72 1010.0
20260508203003 62 328 1.0 5.0 0.00 0.10 0.10 72 1009.9
20260508202503 62 325 3.0 8.0 0.00 0.10 0.10 72 1009.8
20260508202003 62 344 2.0 7.0 0.00 0.10 0.10 72 1009.7
20260508201503 62 350 4.0 7.0 0.00 0.10 0.10 72 1009.8
20260508201003 62 338 3.0 7.0 0.00 0.10 0.10 72 1009.8
20260508200503 62 332 3.0 6.0 0.00 0.10 0.10 72 1009.7
20260508200003 62 330 2.0 7.0 0.00 0.10 0.10 72 1009.6
20260508195503 62 330 3.0 8.0 0.00 0.10 0.10 72 1009.7
20260508195003 62 336 2.0 6.0 0.00 0.10 0.10 72 1009.7
20260508194503 62 338 3.0 7.0 0.00 0.10 0.10 72 1009.6
20260508194003 62 331 3.0 9.0 0.00 0.10 0.10 72 1009.5
20260508193503 62 348 2.0 5.0 0.00 0.10 0.10 72 1009.4
20260508193003 62 340 3.0 7.0 0.00 0.10 0.10 72 1009.4
20260508192503 62 349 3.0 8.0 0.00 0.10 0.10 72 1009.2
20260508192003 62 347 3.0 11.0 0.00 0.10 0.10 72 1009.4
20260508191503 62 343 4.0 10.0 0.00 0.10 0.10 72 1009.2
20260508191003 62 337 4.0 11.0 0.00 0.10 0.10 72 1009.0
20260508190503 62 334 5.0 10.0 0.00 0.10 0.10 72 1008.9
20260508190003 62 342 4.0 10.0 0.00 0.10 0.10 72 1009.0
20260508185503 62 332 4.0 11.0 0.00 0.10 0.10 72 1008.8
20260508185003 62 329 3.0 9.0 0.00 0.10 0.10 72 1008.7
20260508184504 63 314 1.0 7.0 0.00 0.10 0.10 72 1008.5
20260508184003 62 283 1.0 5.0 0.00 0.10 0.10 72 1008.4
20260508183503 62 275 1.0 5.0 0.00 0.10 0.10 72 1008.3
20260508183003 62 244 2.0 5.0 0.00 0.10 0.10 72 1008.3
20260508182503 62 256 1.0 7.0 0.00 0.10 0.10 72 1008.1
20260508182003 62 268 3.0 9.0 0.00 0.10 0.10 72 1008.0
20260508181503 62 270 2.0 6.0 0.00 0.10 0.10 72 1007.7
20260508181003 63 255 2.0 5.0 0.00 0.10 0.10 72 1007.8
20260508180503 63 257 1.0 4.0 0.00 0.10 0.10 72 1007.8
20260508180004 63 265 1.0 4.0 0.00 0.10 0.10 72 1007.7
20260508175503 63 249 1.0 5.0 0.00 0.10 0.10 72 1007.6
20260508175003 63 261 2.0 5.0 0.00 0.10 0.10 72 1007.4
20260508174503 63 261 3.0 8.0 0.00 0.10 0.10 72 1007.3
20260508174003 63 249 3.0 9.0 0.00 0.10 0.10 72 1007.4
20260508173503 64 268 2.0 8.0 0.00 0.10 0.10 72 1007.2
20260508173003 64 246 3.0 11.0 0.00 0.10 0.10 72 1007.3
20260508172503 64 264 2.0 6.0 0.00 0.10 0.10 72 1007.1
20260508172003 64 254 2.0 6.0 0.00 0.10 0.10 72 1007.1
20260508171503 64 246 2.0 6.0 0.00 0.10 0.10 72 1007.1
20260508171003 64 254 1.0 5.0 0.00 0.10 0.10 72 1007.0
20260508170503 64 262 2.0 6.0 0.00 0.10 0.10 71 1007.1
20260508170003 64 234 1.0 4.0 0.00 0.10 0.10 71 1006.9
20260508165004 64 240 4.0 9.0 0.00 0.10 0.10 72 1006.9
20260508164503 64 259 4.0 10.0 0.00 0.10 0.10 72 1006.8
20260508164003 64 228 2.0 6.0 0.00 0.10 0.10 71 1006.7
20260508163503 65 246 3.0 13.0 0.00 0.10 0.10 71 1006.7
20260508163003 65 248 3.0 10.0 0.00 0.10 0.10 71 1006.6
20260508162503 65 246 1.0 5.0 0.00 0.10 0.10 71 1006.7
20260508162003 65 227 2.0 11.0 0.00 0.10 0.10 71 1006.6
20260508161503 65 237 2.0 6.0 0.00 0.10 0.10 71 1006.5
20260508161003 65 249 3.0 10.0 0.00 0.10 0.10 71 1006.4
20260508160503 65 246 3.0 11.0 0.00 0.10 0.10 71 1006.4
20260508160003 65 242 3.0 9.0 0.00 0.10 0.10 71 1006.3
20260508155503 65 248 4.0 11.0 0.00 0.10 0.10 71 1006.4
20260508155003 65 252 3.0 9.0 0.00 0.10 0.10 71 1006.4
20260508154503 65 257 3.0 14.0 0.00 0.10 0.10 71 1006.3
20260508154003 65 247 3.0 10.0 0.00 0.10 0.10 71 1006.5
20260508153503 66 232 4.0 10.0 0.00 0.10 0.10 71 1006.3
20260508153003 66 249 3.0 10.0 0.00 0.10 0.10 71 1006.3
20260508152503 66 253 3.0 6.0 0.00 0.10 0.10 71 1006.3
20260508152003 66 252 3.0 8.0 0.00 0.10 0.10 71 1006.2
20260508151503 66 273 4.0 10.0 0.00 0.10 0.10 71 1006.1
20260508151003 66 253 3.0 11.0 0.00 0.10 0.10 71 1006.1
20260508150503 66 234 1.0 5.0 0.00 0.10 0.10 71 1006.0
20260508150004 66 252 4.0 15.0 0.00 0.10 0.10 71 1006.0
20260508145503 66 238 3.0 11.0 0.00 0.10 0.10 71 1006.0
20260508145003 66 227 3.0 11.0 0.00 0.10 0.10 71 1006.1
20260508144503 66 232 5.0 12.0 0.00 0.10 0.10 71 1006.0
20260508144003 67 235 5.0 11.0 0.00 0.10 0.10 71 1006.1
20260508143503 67 230 4.0 11.0 0.00 0.10 0.10 71 1006.0
20260508143003 67 215 2.0 7.0 0.00 0.10 0.10 71 1006.0
20260508142503 67 234 3.0 9.0 0.00 0.10 0.10 72 1005.8
20260508142003 66 264 4.0 11.0 0.00 0.10 0.10 71 1005.9
20260508141503 66 235 2.0 7.0 0.00 0.10 0.10 71 1006.0
20260508141003 67 224 4.0 11.0 0.00 0.10 0.10 72 1005.9
20260508140503 67 225 6.0 11.0 0.00 0.10 0.10 72 1006.0
20260508140003 67 233 5.0 14.0 0.00 0.10 0.10 72 1005.9
20260508135503 66 224 5.0 11.0 0.00 0.10 0.10 72 1005.8
20260508135003 66 224 6.0 15.0 0.00 0.10 0.10 72 1005.9
20260508134503 66 232 4.0 10.0 0.00 0.10 0.10 72 1005.9
20260508134003 66 220 6.0 11.0 0.00 0.10 0.10 73 1005.8
20260508133503 66 215 3.0 7.0 0.00 0.10 0.10 73 1006.0
20260508133003 66 212 4.0 9.0 0.00 0.10 0.10 73 1005.8
20260508132503 66 200 4.0 8.0 0.00 0.10 0.10 73 1006.0
20260508132003 66 211 2.0 7.0 0.00 0.10 0.10 74 1006.0
20260508131503 65 209 3.0 8.0 0.00 0.10 0.10 74 1005.9
20260508131003 65 221 2.0 8.0 0.00 0.10 0.10 74 1006.0
20260508130503 64 210 2.0 9.0 0.00 0.10 0.10 74 1006.0
20260508130003 64 215 4.0 8.0 0.00 0.10 0.10 74 1006.0
20260508125503 64 227 3.0 7.0 0.00 0.10 0.10 74 1005.9
20260508125003 63 230 3.0 6.0 0.00 0.10 0.10 74 1005.9
20260508124503 63 240 3.0 10.0 0.00 0.10 0.10 74 1005.7
20260508124003 63 223 2.0 7.0 0.00 0.10 0.10 74 1005.9
20260508123503 63 228 3.0 9.0 0.00 0.10 0.10 74 1005.8
20260508123003 63 238 3.0 10.0 0.00 0.10 0.10 74 1006.0
20260508122503 63 223 3.0 7.0 0.00 0.10 0.10 74 1006.0
20260508122003 63 223 3.0 6.0 0.00 0.10 0.10 74 1006.0
20260508121503 63 253 2.0 6.0 0.00 0.10 0.10 74 1005.9
20260508121003 62 225 4.0 9.0 0.00 0.10 0.10 74 1005.9
20260508120503 63 221 3.0 9.0 0.00 0.10 0.10 74 1006.0
20260508120003 63 237 4.0 10.0 0.00 0.10 0.10 74 1005.9
20260508115503 63 225 5.0 13.0 0.00 0.10 0.10 74 1005.9
20260508115003 62 244 4.0 12.0 0.00 0.10 0.10 74 1005.9
20260508114503 62 243 3.0 7.0 0.00 0.10 0.10 74 1005.7
20260508114003 62 235 4.0 14.0 0.00 0.10 0.10 74 1005.7
20260508113504 62 231 4.0 9.0 0.00 0.10 0.10 74 1005.7
20260508113004 63 233 2.0 6.0 0.00 0.10 0.10 74 1005.7
20260508112503 62 229 4.0 14.0 0.00 0.10 0.10 74 1005.6
20260508112003 62 257 2.0 5.0 0.00 0.10 0.10 74 1005.6
20260508111503 62 270 2.0 8.0 0.00 0.10 0.10 74 1005.6
20260508111003 62 242 3.0 10.0 0.00 0.10 0.10 74 1005.7
20260508110503 62 240 5.0 12.0 0.00 0.10 0.10 74 1005.7
20260508110003 62 234 4.0 9.0 0.00 0.10 0.10 74 1005.6
20260508105503 62 241 3.0 7.0 0.00 0.10 0.10 74 1005.8
20260508105003 62 248 4.0 9.0 0.00 0.10 0.10 74 1005.8
20260508104503 62 235 3.0 11.0 0.00 0.10 0.10 74 1005.8
20260508104003 62 222 2.0 5.0 0.00 0.10 0.10 74 1005.8
20260508103503 62 244 2.0 7.0 0.00 0.10 0.10 74 1005.9
20260508103003 61 238 4.0 7.0 0.00 0.10 0.10 74 1006.0
20260508102503 62 238 2.0 6.0 0.02 0.10 0.10 74 1006.0
20260508102003 62 260 1.0 5.0 0.02 0.10 0.10 74 1006.0
20260508101503 62 225 1.0 5.0 0.02 0.10 0.10 74 1006.1
20260508101003 62 269 1.0 2.0 0.02 0.10 0.10 74 1006.0
20260508100503 61 284 0.0 3.0 0.02 0.10 0.10 74 1006.1
20260508100003 61 316 1.0 3.0 0.02 0.10 0.10 74 1006.0
20260508095503 61 324 2.0 5.0 0.02 0.10 0.10 74 1005.9
20260508095003 61 336 1.0 5.0 0.02 0.10 0.10 74 1006.0
20260508094503 61 334 1.0 3.0 0.02 0.10 0.10 74 1005.8
20260508094003 61 358 2.0 5.0 0.02 0.10 0.10 74 1005.7
20260508093503 61 2 2.0 6.0 0.02 0.10 0.10 74 1005.7
20260508093003 61 360 3.0 5.0 0.02 0.10 0.10 73 1005.7
20260508092503 61 11 3.0 6.0 0.00 0.08 0.08 73 1005.7
20260508092003 61 4 3.0 7.0 0.00 0.08 0.08 74 1005.7
20260508091503 61 3 4.0 8.0 0.02 0.08 0.08 73 1005.7
20260508091003 61 5 6.0 9.0 0.02 0.08 0.08 73 1005.7
20260508090503 61 12 4.0 8.0 0.02 0.08 0.08 73 1005.7
20260508090003 61 15 3.0 6.0 0.02 0.08 0.08 73 1005.6
20260508085503 61 10 5.0 8.0 0.02 0.08 0.08 73 1005.5
20260508085003 61 8 4.0 7.0 0.02 0.08 0.08 73 1005.6
20260508084503 61 16 4.0 9.0 0.02 0.08 0.08 73 1005.6
20260508084003 60 10 6.0 10.0 0.02 0.08 0.08 73 1005.6
20260508083503 60 12 5.0 9.0 0.04 0.08 0.08 73 1005.6
20260508083003 60 10 7.0 11.0 0.04 0.08 0.08 73 1005.6
20260508082503 60 12 6.0 11.0 0.04 0.08 0.08 73 1005.6
20260508082003 60 13 7.0 10.0 0.04 0.08 0.08 73 1005.6
20260508081504 60 20 6.0 11.0 0.02 0.06 0.06 73 1005.6
20260508081003 60 21 6.0 9.0 0.02 0.06 0.06 73 1005.6
20260508080503 60 19 4.0 9.0 0.02 0.06 0.06 73 1005.6
20260508080003 60 14 6.0 10.0 0.02 0.06 0.06 73 1005.6
20260508075503 60 16 6.0 10.0 0.02 0.06 0.06 73 1005.6
20260508075003 60 13 4.0 8.0 0.02 0.06 0.06 73 1005.6
20260508074503 60 16 5.0 8.0 0.02 0.06 0.06 73 1005.6
20260508074003 60 18 5.0 10.0 0.02 0.06 0.06 73 1005.6
20260508073503 60 3 5.0 9.0 0.00 0.04 0.04 73 1005.6
20260508073003 60 14 5.0 9.0 0.00 0.04 0.04 73 1005.7
20260508072503 60 12 3.0 6.0 0.00 0.04 0.04 73 1005.7
20260508072003 60 9 6.0 11.0 0.00 0.04 0.04 73 1005.7
20260508071503 60 17 6.0 13.0 0.00 0.04 0.04 73 1005.7
20260508071003 60 23 5.0 11.0 0.00 0.04 0.04 72 1005.7
20260508070503 60 15 6.0 8.0 0.02 0.04 0.04 73 1005.7
20260508070004 60 24 6.0 8.0 0.02 0.04 0.04 72 1005.8
20260508065503 60 22 5.0 9.0 0.02 0.04 0.04 72 1005.9
20260508065003 60 18 4.0 7.0 0.02 0.04 0.04 72 1005.9
20260508064503 60 23 3.0 5.0 0.02 0.04 0.04 72 1006.0
20260508064003 60 18 3.0 5.0 0.02 0.04 0.04 72 1006.1
20260508063503 60 24 3.0 5.0 0.02 0.04 0.04 72 1006.1
20260508063003 60 19 3.0 5.0 0.02 0.04 0.04 72 1006.1
20260508062503 60 24 3.0 5.0 0.02 0.04 0.04 72 1006.1
20260508062003 60 22 3.0 5.0 0.02 0.04 0.04 72 1006.1
20260508061503 60 20 3.0 8.0 0.02 0.04 0.04 72 1006.1
20260508061003 59 24 3.0 5.0 0.02 0.04 0.04 72 1006.1
20260508060503 59 27 4.0 7.0 0.00 0.02 0.02 72 1006.1
20260508060003 59 29 4.0 9.0 0.00 0.02 0.02 72 1006.0
20260508055504 59 32 4.0 8.0 0.00 0.02 0.02 72 1006.0
20260508055003 59 34 4.0 9.0 0.00 0.02 0.02 72 1006.0
20260508054503 59 43 4.0 8.0 0.00 0.02 0.02 72 1006.0
20260508054003 59 33 4.0 7.0 0.00 0.02 0.02 72 1006.0
20260508053503 59 36 5.0 8.0 0.00 0.02 0.02 72 1006.0
20260508053003 59 28 4.0 6.0 0.00 0.02 0.02 72 1006.0
20260508052503 59 33 4.0 7.0 0.00 0.02 0.02 72 1006.0
20260508052003 59 29 5.0 10.0 0.00 0.02 0.02 72 1005.9
20260508051503 59 34 3.0 6.0 0.02 0.02 0.02 72 1006.0
20260508051003 59 28 4.0 7.0 0.02 0.02 0.02 72 1006.0
20260508050503 59 26 4.0 8.0 0.02 0.02 0.02 72 1005.9
20260508050003 59 24 5.0 8.0 0.02 0.02 0.02 72 1005.9
20260508045503 59 25 4.0 7.0 0.02 0.02 0.02 72 1005.7
20260508045003 59 30 4.0 8.0 0.02 0.02 0.02 72 1005.8
20260508044503 59 37 5.0 9.0 0.02 0.02 0.02 72 1005.7
20260508044003 59 45 5.0 9.0 0.02 0.02 0.02 72 1005.7
20260508043503 59 51 6.0 9.0 0.02 0.02 0.02 72 1005.7
20260508043003 59 47 6.0 11.0 0.02 0.02 0.02 72 1005.8
20260508042503 60 45 5.0 9.0 0.02 0.02 0.02 72 1005.7
20260508042003 60 40 5.0 9.0 0.02 0.02 0.02 73 1005.7
20260508041003 60 44 5.0 9.0 0.00 0.00 0.00 73 1005.7
20260508040503 60 40 4.0 7.0 0.00 0.00 0.00 72 1005.7
20260508040003 60 43 4.0 8.0 0.00 0.00 0.00 72 1005.7
20260508035503 60 48 5.0 9.0 0.00 0.00 0.00 72 1005.7
20260508035003 61 54 6.0 11.0 0.00 0.00 0.00 72 1005.6
20260508034503 61 49 5.0 10.0 0.00 0.00 0.00 71 1005.7
20260508034003 61 49 5.0 10.0 0.00 0.00 0.00 71 1005.6
20260508033503 61 47 5.0 10.0 0.00 0.00 0.00 71 1005.6
20260508033003 61 51 5.0 10.0 0.00 0.00 0.00 71 1005.6
20260508032503 62 51 6.0 9.0 0.00 0.00 0.00 71 1005.6
20260508032003 61 51 6.0 11.0 0.00 0.00 0.00 71 1005.7
20260508031503 61 54 5.0 10.0 0.00 0.00 0.00 71 1005.7
20260508031003 61 48 5.0 11.0 0.00 0.00 0.00 71 1005.8
20260508030503 61 48 5.0 9.0 0.00 0.02 0.00 71 1005.8
20260508030003 61 55 6.0 10.0 0.00 0.02 0.00 71 1005.8
20260508025503 61 49 5.0 10.0 0.00 0.02 0.00 71 1005.8
20260508025003 61 51 6.0 11.0 0.00 0.02 0.00 71 1005.9
20260508024503 61 52 6.0 10.0 0.00 0.02 0.00 70 1006.0
20260508024003 61 46 5.0 10.0 0.00 0.02 0.00 70 1006.0
20260508023503 61 49 5.0 9.0 0.00 0.02 0.00 71 1006.0
20260508023003 61 41 4.0 9.0 0.00 0.02 0.00 71 1006.0
20260508022503 61 43 5.0 9.0 0.00 0.02 0.00 71 1006.1
20260508022003 61 47 4.0 9.0 0.00 0.02 0.00 71 1006.2
20260508021503 61 47 4.0 7.0 0.00 0.02 0.00 71 1006.3
20260508021003 61 40 4.0 8.0 0.00 0.02 0.00 71 1006.3
20260508020503 60 43 5.0 9.0 0.00 0.02 0.00 71 1006.4
20260508020003 61 28 3.0 6.0 0.00 0.02 0.00 71 1006.4
20260508015503 61 33 4.0 7.0 0.00 0.02 0.00 71 1006.4
20260508015003 61 43 3.0 8.0 0.00 0.02 0.00 71 1006.4
20260508014503 60 48 4.0 6.0 0.00 0.02 0.00 71 1006.5
20260508014003 60 47 3.0 6.0 0.00 0.02 0.00 71 1006.5
20260508013503 61 32 3.0 8.0 0.00 0.02 0.00 71 1006.4
20260508013003 61 44 4.0 7.0 0.00 0.02 0.00 71 1006.4
20260508012503 61 42 4.0 8.0 0.00 0.02 0.00 71 1006.4
20260508012003 61 54 4.0 9.0 0.00 0.02 0.00 71 1006.6
20260508011503 61 48 4.0 11.0 0.00 0.02 0.00 71 1006.6
20260508011003 61 50 3.0 6.0 0.00 0.02 0.00 71 1006.6
20260508010503 61 46 3.0 5.0 0.00 0.04 0.00 71 1006.7
20260508010003 61 54 4.0 12.0 0.00 0.04 0.00 71 1006.6
20260508005503 61 60 4.0 12.0 0.00 0.04 0.00 71 1006.6
20260508005003 61 56 4.0 11.0 0.00 0.04 0.00 71 1006.7
20260508004503 60 51 4.0 10.0 0.00 0.04 0.00 71 1006.7
20260508004003 60 55 3.0 5.0 0.00 0.04 0.00 71 1006.7
20260508003503 60 49 4.0 7.0 0.00 0.04 0.00 71 1006.7
20260508003003 60 50 5.0 9.0 0.00 0.04 0.00 71 1006.8
20260508002503 60 51 6.0 9.0 0.00 0.04 0.00 71 1007.0
20260508002003 60 51 6.0 11.0 0.00 0.04 0.00 71 1007.1
20260508001503 60 43 5.0 10.0 0.00 0.04 0.00 71 1007.0
20260508001003 60 46 5.0 9.0 0.00 0.04 0.00 70 1007.2
20260508000503 60 48 6.0 11.0 0.00 0.04 0.00 70 1007.2
20260508000003 60 45 5.0 9.0 0.00 0.04 0.00 70 1007.4
20260507235503 60 45 4.0 8.0 0.00 0.04 0.00 70 1007.5
20260507235003 60 44 4.0 9.0 0.00 0.04 0.00 70 1007.6
20260507234503 60 50 4.0 9.0 0.00 0.04 0.00 70 1007.7
20260507234003 60 44 3.0 7.0 0.00 0.04 0.00 70 1007.7
20260507233503 60 41 3.0 7.0 0.00 0.04 0.00 70 1007.8
20260507233003 60 47 5.0 9.0 0.00 0.04 0.00 69 1007.8
20260507232503 60 46 5.0 9.0 0.00 0.04 0.00 69 1007.9
20260507232003 60 53 5.0 9.0 0.00 0.04 0.00 69 1008.0
20260507231503 60 44 5.0 10.0 0.00 0.04 0.00 69 1008.1
20260507231003 60 45 2.0 6.0 0.00 0.04 0.00 69 1008.2
20260507230503 60 34 3.0 6.0 0.00 0.04 0.00 69 1008.4
20260507230003 59 31 2.0 5.0 0.00 0.04 0.00 69 1008.4
20260507225503 59 30 2.0 5.0 0.00 0.04 0.00 69 1008.5
20260507225003 59 30 4.0 6.0 0.00 0.04 0.00 69 1008.6
20260507224504 59 24 3.0 6.0 0.00 0.04 0.00 69 1008.6
20260507224003 59 31 2.0 4.0 0.00 0.04 0.00 69 1008.6
20260507223503 59 24 3.0 7.0 0.00 0.04 0.00 69 1008.7
20260507223003 59 25 4.0 6.0 0.00 0.04 0.00 69 1008.6
20260507222503 59 23 3.0 4.0 0.00 0.04 0.00 68 1008.7
20260507222003 59 24 2.0 4.0 0.00 0.04 0.00 68 1008.7
20260507221503 59 27 1.0 3.0 0.00 0.04 0.00 68 1008.8
20260507221003 60 41 1.0 4.0 0.00 0.04 0.00 68 1008.8
20260507220503 60 23 1.0 3.0 0.00 0.04 0.00 67 1008.8
20260507220003 60 22 2.0 4.0 0.00 0.04 0.00 67 1008.7
20260507215503 60 23 2.0 4.0 0.00 0.04 0.04 67 1008.7
20260507215003 60 24 2.0 4.0 0.00 0.04 0.04 67 1008.7
20260507214503 60 32 2.0 4.0 0.00 0.04 0.04 67 1008.7
20260507214003 60 24 2.0 4.0 0.00 0.04 0.04 67 1008.8
20260507213503 60 24 2.0 4.0 0.00 0.04 0.04 67 1008.8